Regional Weather Roundup
Issued by NWS

Home | Current Version | Previous Version | Text Only | Print | Product List | Glossary Off
Versions: 1 2 3 4 5 6 7 8 9 10 11 12 13 14 15 16 17 18 19 20 21 22 23 24 25 26 27

000
ASUS45 KCYS 222310
RWRWY

WYOMING REGIONAL WEATHER ROUNDUP
NATIONAL WEATHER SERVICE CHEYENNE WY
500 PM MDT SAT JUL 22 2017

NOTE:  "FAIR" INDICATES FEW OR NO CLOUDS BELOW 12,000 FEET
WITH NO SIGNIFICANT WEATHER AND/OR OBSTRUCTIONS TO VISIBILITY.

WYZ001-230000-
YELLOWSTONE NATIONAL PARK

CITY           SKY/WX    TMP DP  RH WIND       PRES   REMARKS
LK YELLOWSTONE   N/A     77  22  13 W5        30.38F
W YELLOWSTONE  NOT AVBL

$$
WYZ002>013-054>058-071-098>099-230000-
NORTHERN WYOMING

CITY           SKY/WX    TMP DP  RH WIND       PRES   REMARKS
JACKSON        SUNNY     82  30  15 SW9       30.28S
CODY           FAIR      83  39  21 N14       30.16F
GREYBULL       FAIR      92  26   9 SW8       30.05F
WORLAND        FAIR      93  30  10 N8        30.07F
SHERIDAN       FAIR      88  31  13 VRB3      30.11F
BUFFALO        FAIR      86  30  13 VRB3      30.18F
GILLETTE       FAIR      88  28  11 E6        30.12F
HULETT         FAIR      88  32  13 N7        30.14S
NEWCASTLE      FAIR      91  32  12 NW8       30.09F

$$
WYZ014>020-022>026-101>103-230000-
CENTRAL WYOMING

CITY           SKY/WX    TMP DP  RH WIND       PRES   REMARKS
BIG PINEY      FAIR      84  28  13 VRB3      30.30F
PINEDALE       FAIR      81  30  16 N14       30.32S
DUBOIS         FAIR      81  25  12 NW8G22    30.30F
LANDER         FAIR      89  30  12 VRB6      30.14F
RIVERTON       FAIR      88  25  10 E7        30.16F
CASPER         FAIR      89  27  10 VRB6      30.17F
DOUGLAS        FAIR      90  41  18 N8        30.13F

$$
WYZ021-027>030-104>119-230000-
SOUTHERN WYOMING

CITY           SKY/WX    TMP DP  RH WIND       PRES   REMARKS
EVANSTON       FAIR      84  31  14 NW15G22   30.30F
KEMMERER         N/A     84  28  13 NW16      30.32F
FORT BRIDGER   FAIR      89  26  10 N12G23    30.32F
ROCK SPRINGS   FAIR      88  21   8 N12G17    30.26F
RAWLINS        FAIR      85  29  13 NW7       30.28F
SARATOGA       FAIR      84  27  12 N6G18     30.30F
LARAMIE        FAIR      82  32  16 N15G32    30.29F
CHEYENNE       FAIR      83  47  28 S6        30.20F
TORRINGTON     FAIR      91  50  24 SE8       30.05F
PINE BLUFFS    FAIR      86  43  22 E6        30.14S

$$




USA.gov is the U.S. government's official web portal to all federal, state and local government web resources and services.